Theta_e
343 338 334 331 330 332 337 340 343 344 344 343 340 338 334 323 323 325 329 332 331 327 324 323 323 323 327 332 337 337 335 331 328 327 327 325 324 323 323 323 323 324 324
341 337 334 332 329 328 330 336 340 341 341 339 336 333 329 323 324 326 325 325 325 326 323 323 323 326 328 332 338 338 337 335 331 329 329 328 326 325 324 323 323 323 323
340 336 335 333 330 328 323 326 333 336 336 335 332 327 324 322 325 324 324 323 323 324 323 324 325 326 335 337 338 338 338 337 336 335 331 330 329 328 327 325 324 324 324
338 337 336 334 333 331 327 324 327 329 330 328 326 323 324 323 325 325 325 324 323 323 323 325 327 327 333 338 341 340 336 337 336 335 333 332 332 331 330 328 327 326 324
340 338 337 337 335 333 331 327 321 323 324 322 322 324 322 325 326 326 325 324 323 323 322 324 327 329 337 340 342 340 337 337 336 335 333 332 332 332 332 332 331 329 328
341 338 338 337 337 335 333 331 324 321 322 323 324 323 321 326 327 325 326 324 323 323 322 323 325 328 333 339 341 339 339 338 337 336 334 334 333 332 330 329 332 332 331
341 338 338 338 338 338 335 334 330 322 324 324 322 321 322 325 325 325 326 323 323 323 323 323 323 325 327 330 340 339 338 337 336 336 335 334 334 334 333 331 329 330 332
341 340 338 338 338 339 339 336 334 327 322 322 320 319 321 323 324 327 323 321 321 323 323 323 324 325 328 329 334 339 339 337 334 334 333 334 334 333 333 333 330 328 328
341 340 340 339 338 339 339 339 337 333 326 323 322 322 322 323 327 325 323 322 321 323 323 323 323 326 329 330 329 335 339 337 329 332 334 330 333 332 331 331 331 328 327
342 341 340 340 339 339 339 340 339 337 333 327 323 323 326 326 327 325 323 322 321 322 323 323 323 323 324 326 328 328 328 327 325 323 322 322 330 330 328 328 329 329 328
343 342 341 341 341 341 340 340 340 339 337 333 327 324 324 326 327 324 323 323 322 321 321 321 322 323 323 323 323 323 323 322 325 328 326 323 331 328 330 330 329 329 328
343 342 342 342 342 341 341 341 340 340 339 336 332 326 324 324 323 323 323 323 323 323 321 321 320 320 320 320 320 320 319 320 328 330 327 328 328 330 331 332 331 329 329
342 342 342 342 342 341 340 339 339 339 339 338 334 330 325 323 324 323 323 323 323 324 323 323 323 322 321 321 321 321 323 321 329 331 331 331 331 331 338 341 341 340 340
343 340 340 342 342 341 340 338 337 338 338 338 336 333 330 324 322 324 323 323 323 323 324 324 325 324 322 322 325 331 333 327 330 332 333 336 338 340 342 342 342 339 339
342 340 339 340 341 341 339 336 336 336 338 338 337 334 331 327 323 322 323 323 323 323 323 329 336 336 333 337 331 333 336 340 341 341 340 337 337 339 339 338 336 337 336
343 341 339 340 340 339 336 334 333 334 334 336 335 332 330 327 323 321 321 322 323 323 323 330 341 341 342 342 342 342 342 341 342 341 341 337 335 336 335 336 334 334 335
343 339 339 340 339 336 334 332 330 331 331 331 328 326 324 323 322 321 321 321 322 323 331 331 335 340 344 344 344 344 344 342 341 339 340 341 334 335 335 330 326 324 323
347 347 339 336 335 333 333 331 330 329 330 329 327 323 322 322 322 322 322 321 322 323 332 337 338 339 340 343 344 343 342 342 340 337 337 341 337 337 336 328 323 320 319
342 345 347 345 339 340 336 333 332 331 329 329 329 326 324 324 323 322 322 322 323 324 332 337 341 344 344 343 343 344 342 342 341 338 339 340 340 339 334 326 322 318 317
333 339 340 344 344 342 338 336 335 334 331 330 330 329 331 331 330 327 328 334 333 329 333 339 342 345 342 342 341 340 339 338 339 335 337 340 337 335 332 324 321 317 317
330 333 336 338 342 343 340 338 339 336 334 332 332 334 343 339 338 342 343 344 343 342 341 340 342 343 340 340 339 339 340 338 338 336 338 337 338 334 328 323 318 317 316
327 329 335 336 339 342 344 342 339 339 339 339 334 337 344 345 344 344 344 342 341 338 333 335 331 334 334 336 337 338 339 339 336 336 335 334 335 330 326 321 317 316 316
327 327 328 332 339 339 341 341 341 340 341 341 341 342 348 346 344 344 345 344 342 340 339 335 327 326 329 337 335 336 337 336 329 328 328 328 329 326 324 319 316 316 315
325 327 327 327 328 337 340 340 339 339 343 342 344 348 345 344 343 337 334 334 342 342 337 333 331 332 333 332 333 335 334 335 334 333 332 330 325 324 323 318 316 315 316
323 324 326 327 327 328 333 337 337 340 342 344 345 342 340 340 341 339 339 337 335 335 335 336 337 334 333 334 333 333 334 332 334 330 330 330 333 332 322 320 316 315 316
319 320 324 327 325 327 333 337 338 338 340 342 341 337 336 340 339 339 338 337 337 338 333 330 332 330 335 336 333 333 334 333 332 333 327 329 333 331 325 318 315 315 315
Wind_Speed
30 28 26 25 21 21 22 24 26 25 23 20 16 13 11 15 17 16 16 15 14 14 14 14 15 16 17 18 17 17 16 16 16 16 15 15 14 14 14 13 12 11 11
33 30 27 25 21 20 20 22 24 23 21 18 15 12 12 16 17 15 14 13 13 12 13 15 15 16 17 15 14 14 14 15 16 16 16 16 15 13 13 12 12 10 11
33 31 28 25 22 18 17 18 21 22 20 17 15 13 15 18 17 15 14 12 12 12 12 13 14 15 14 13 12 12 12 12 13 14 15 14 14 14 14 12 11 10 10
33 32 29 25 22 18 16 15 18 20 19 17 15 15 17 18 16 14 12 11 11 10 11 12 12 11 12 12 11 11 11 12 11 12 13 13 13 14 14 13 11 11 10
34 32 29 26 22 18 16 14 14 17 17 16 16 17 18 17 15 12 11 11 10 10 10 10 10 10 11 9 8 10 9 10 10 10 9 10 11 12 12 12 12 11 10
35 32 28 24 21 19 15 13 12 15 16 16 17 17 18 16 13 11 10 9 9 9 9 9 9 8 8 7 7 7 5 6 6 6 6 7 8 8 9 10 10 8 8
35 32 28 25 21 18 16 12 11 12 14 15 16 17 17 14 12 10 9 8 8 8 8 9 9 8 7 7 6 5 3 4 4 3 2 2 4 5 6 7 8 7 7
33 33 30 27 23 19 15 13 11 11 12 13 14 15 15 13 11 10 8 8 8 8 7 8 8 7 7 7 8 6 4 2 2 2 2 2 2 2 3 4 6 7 7
32 33 30 27 25 21 19 16 12 10 10 12 13 14 14 13 12 9 8 7 8 8 8 7 7 7 7 8 9 10 9 8 7 7 6 5 4 3 5 6 6 6 7
34 32 31 28 26 23 21 18 15 13 11 10 12 14 13 14 13 11 9 9 8 8 8 7 6 6 8 8 10 10 10 10 8 8 9 6 5 4 5 6 6 5 5
32 32 31 29 27 25 23 21 18 16 13 12 12 14 15 16 14 12 10 9 8 8 7 7 7 8 8 9 9 10 10 9 7 7 8 6 5 5 6 6 7 6 6
34 33 31 29 27 25 23 21 19 17 16 16 15 15 16 16 16 14 13 11 9 8 7 6 7 8 8 9 9 9 10 10 8 7 5 5 6 6 7 7 7 7 8
33 32 30 28 25 24 23 22 22 21 20 18 17 16 15 17 17 17 15 14 11 10 8 7 8 8 9 9 9 9 10 10 10 9 9 9 10 9 8 6 6 6 6
29 29 29 28 27 25 23 22 22 21 21 21 19 17 16 15 16 17 17 15 13 12 10 10 11 11 10 10 10 9 8 9 11 12 11 11 9 9 8 9 9 9 10
28 29 28 28 26 24 23 22 22 22 22 21 19 16 15 16 16 17 17 17 15 13 11 11 11 9 9 8 9 11 10 10 11 11 10 11 11 11 10 10 10 12 12
25 26 27 28 25 23 23 21 20 20 20 18 17 17 17 16 16 16 17 17 15 14 14 13 13 11 10 11 11 11 12 14 12 11 12 11 11 10 9 10 11 12 14
21 23 25 26 25 23 20 18 20 20 20 19 17 16 18 17 16 16 16 15 15 13 13 14 15 16 14 14 15 15 14 13 13 14 15 15 13 12 10 11 12 12 12
14 21 22 23 24 23 21 19 17 16 18 17 20 18 18 18 17 16 16 15 14 16 16 16 15 18 19 19 20 17 14 15 15 16 17 16 15 13 13 14 14 12 11
17 15 21 26 26 20 22 21 20 14 18 20 25 21 20 19 17 16 16 14 16 17 17 16 17 17 19 18 20 22 19 19 23 21 17 16 17 15 15 15 14 13 11
19 22 24 23 27 28 27 28 29 23 23 24 25 21 22 19 18 16 17 15 15 16 17 16 17 17 19 20 22 23 22 22 23 21 19 21 18 18 16 14 13 13 10
13 22 26 28 27 26 29 28 26 26 25 25 24 18 20 19 17 16 18 16 14 15 15 15 17 21 22 22 27 27 23 22 21 22 21 22 20 19 16 14 14 12 11
11 10 19 25 29 28 24 25 25 21 17 23 23 20 23 19 17 17 17 17 15 16 19 16 21 19 21 21 27 28 19 18 20 22 24 25 23 20 16 14 14 13 10
18 15 12 12 22 27 24 22 26 29 28 23 16 18 15 14 13 17 16 18 17 16 17 17 17 20 22 24 25 27 17 8 6 9 15 20 20 18 16 16 15 13 12
23 21 20 18 17 23 25 26 27 27 19 20 20 17 13 13 11 9 10 12 14 15 14 16 20 21 23 22 29 29 26 21 15 19 20 16 19 20 21 18 17 15 14
24 26 23 24 18 21 23 22 18 17 19 19 17 13 11 12 12 10 14 12 14 17 19 20 23 24 28 25 30 29 27 23 20 17 30 20 24 28 26 24 20 18 16
27 32 27 25 21 19 20 17 14 16 21 20 19 14 10 13 15 17 18 18 16 18 23 26 27 29 29 34 31 31 28 27 24 25 30 30 34 24 29 25 23 20 18
Wind_Direction
173 168 161 158 157 155 154 155 158 159 157 153 146 142 135 140 139 137 136 135 132 128 123 119 115 112 111 107 98 91 88 85 81 78 75 72 72 72 71 73 70 66 65
167 168 162 158 157 156 160 161 161 162 162 158 155 147 145 146 142 138 136 135 133 132 127 123 121 120 122 115 102 96 88 81 76 74 74 72 71 73 69 63 64 65 65
167 167 164 160 156 158 159 163 166 167 166 164 162 156 154 150 145 140 136 133 134 136 132 129 126 129 127 120 109 102 87 78 75 72 71 71 71 69 69 65 58 52 57
169 168 165 162 158 158 156 158 166 170 170 170 167 160 157 152 147 143 138 133 136 140 140 136 132 132 131 122 114 108 92 79 76 77 73 74 69 67 67 66 61 49 42
170 170 168 165 160 156 155 155 161 169 171 169 166 162 159 156 153 151 141 137 141 146 148 147 141 137 139 130 117 110 92 84 84 82 81 77 69 64 63 61 59 52 43
171 170 169 166 162 157 154 156 155 162 164 164 164 162 161 160 159 156 147 143 148 153 154 157 155 152 158 151 141 124 95 97 90 86 81 78 71 63 57 56 55 49 45
170 169 171 169 167 164 159 159 156 159 161 165 165 165 166 166 168 165 157 153 156 159 159 161 168 175 185 187 179 168 127 112 93 74 67 62 57 57 48 37 43 38 31
173 173 174 173 171 170 170 168 164 159 165 168 171 172 174 174 175 174 167 165 165 161 165 166 174 184 200 208 208 215 222 239 280 293 346 331 325 359 15 14 19 20 20
176 175 176 176 176 174 173 173 177 173 168 175 179 181 181 182 183 182 175 174 173 168 170 172 181 187 202 214 222 230 240 259 268 267 286 288 299 337 345 345 349 352 3
176 179 178 180 180 179 180 181 180 179 177 179 188 190 191 193 193 191 186 186 183 182 182 179 183 194 207 218 228 237 247 259 268 276 280 275 261 287 318 321 314 307 336
176 181 183 184 183 184 184 187 187 188 191 193 195 201 203 206 206 204 200 197 196 194 193 190 197 205 217 224 234 241 249 253 256 275 279 256 252 294 314 317 312 275 289
181 183 188 191 189 189 190 191 198 199 204 206 207 209 209 213 214 213 210 208 207 208 209 206 213 221 228 233 240 246 252 249 248 255 258 239 249 273 295 297 288 269 268
184 187 190 196 195 197 198 201 204 208 211 214 217 218 217 218 220 220 220 216 215 216 220 225 235 236 238 245 250 251 257 256 245 246 244 253 261 272 277 273 281 278 267
185 190 193 197 199 200 203 207 213 215 218 221 224 224 225 228 228 228 228 228 226 229 229 240 249 252 251 253 251 245 252 242 247 250 249 251 258 251 259 272 281 276 278
191 194 196 198 201 202 206 211 214 218 223 227 231 234 238 235 234 233 232 234 234 240 245 250 252 262 253 253 252 253 253 247 246 247 244 252 260 263 269 276 281 280 283
201 201 200 200 202 205 207 209 213 220 227 230 235 239 242 241 239 236 236 236 237 242 246 246 250 258 260 262 264 265 262 251 256 255 258 271 260 264 268 284 288 287 284
201 205 207 206 204 207 210 211 217 220 223 225 234 240 242 239 237 236 238 239 239 242 243 248 251 260 266 267 270 275 269 253 259 264 267 268 262 266 288 296 302 301 294
192 211 204 206 208 210 211 211 220 229 236 232 234 235 236 235 236 238 239 238 241 240 247 253 258 265 269 271 274 277 275 257 262 269 269 261 261 272 288 299 308 310 309
211 197 201 208 208 208 213 216 217 219 234 237 237 234 231 236 240 241 244 241 239 242 247 252 264 276 283 286 284 279 276 272 273 274 254 253 264 272 281 295 302 306 313
219 219 224 209 206 211 213 216 224 226 226 231 240 252 251 246 247 246 247 239 234 241 248 257 270 279 284 291 291 287 281 279 281 257 249 253 257 266 277 284 294 300 313
227 215 223 229 220 219 225 230 236 233 235 243 250 245 251 246 246 234 242 242 239 251 261 271 290 273 287 297 295 295 294 281 276 251 254 256 254 259 264 271 282 287 301
227 226 228 230 224 225 232 237 240 238 251 263 259 251 256 258 254 260 258 259 253 250 254 265 258 264 273 287 286 293 298 287 275 258 254 251 251 250 252 266 270 279 289
243 248 258 247 230 232 237 243 247 257 272 259 258 254 250 261 271 270 277 272 258 257 262 274 273 266 286 289 287 285 283 254 296 274 263 256 247 245 249 260 262 265 265
249 250 258 258 250 245 245 245 246 253 244 242 233 238 255 270 265 244 265 266 266 271 272 269 274 279 278 279 284 282 277 263 266 298 277 281 258 254 257 256 260 256 255
243 255 259 263 253 244 243 245 241 233 219 222 240 248 265 262 276 274 266 260 263 270 270 271 272 286 282 278 274 280 281 276 259 257 284 276 272 267 255 261 252 250 249
236 246 252 251 258 261 243 238 233 221 232 241 240 245 279 280 273 275 277 278 277 262 263 265 265 260 276 277 265 265 273 277 278 259 248 271 262 266 260 249 248 246 245